Location: Le Domaine
(47.0333°N, 76.5361°W)
Time: 04:52:08
(UTC-05:00)

Explorer 11/Cluster Stage 4 - Pass Details

Date: 20 November 2019
Orbit: 467 x 1259 km, 28.8° (Epoch: 15 December)

Event Time Altitude Azimuth Distance (km) Brightness Sun altitude
Rises 19:46:23 0° 216° (SW) 3,148 10.0 -33.7°
Enters shadow 19:48:42 - 200° (SSW) 2,657 9.4 -34.1°
Reaches altitude 10° 19:50:36 10° 183° (S) 2,438 - -34.4°
Maximum altitude 19:52:23 11° 165° (SSE) 2,426 - -34.7°
Drops below altitude 10° 19:54:16 10° 147° (SSE) 2,617 - -35.1°
Sets 19:59:22 0° 117° (ESE) 3,792 - -35.9°
